Regional Weather Roundup
Issued by NWS Charleston, WV

Home | Current Version | Previous Version | Text Only | Print | Product List | Glossary Off
Versions: 1 2 3 4 5 6 7 8 9 10 11 12 13 14 15 16 17 18 19 20 21 22 23 24 25 26 27 28

000
ASUS41 KRLX 181610
RWRRLX
West Virginia Regional Weather Roundup
National Weather Service Charleston WV
1200 PM EDT WED OCT 18 2017

Note: "fair" indicates few or no clouds below 12,000 feet with no
significant weather and/or obstructions to visibility.

WVZ003-181700-
Northern Panhandle of West Virginia

CITY           SKY/WX    TMP DP  RH WIND       PRES   REMARKS
WHEELING       SUNNY     62  40  44 VRB3      30.35S
$$

WVZ009-181700-
Northwest West Virginia

CITY           SKY/WX    TMP DP  RH WIND       PRES   REMARKS
PARKERSBURG    SUNNY     60  45  57 VRB3      30.39S
$$

WVZ006-181700-
Western West Virginia

CITY           SKY/WX    TMP DP  RH WIND       PRES   REMARKS
HUNTINGTON     SUNNY     60  45  57 CALM      30.36S
$$

WVZ015-181700-
West Central West Virginia

CITY           SKY/WX    TMP DP  RH WIND       PRES   REMARKS
CHARLESTON     MOSUNNY   61  44  53 CALM      30.35F
$$

WVZ022-031-181700-
North Central West Virginia

CITY           SKY/WX    TMP DP  RH WIND       PRES   REMARKS
CLARKSBURG     SUNNY     62  42  47 E6        30.35F
MORGANTOWN     SUNNY     64  39  39 E9        30.36F
$$

WVZ025-035-042-045-181700-
Southern West Virginia

CITY           SKY/WX    TMP DP  RH WIND       PRES   REMARKS
BECKLEY        SUNNY     61  35  37 S8G17     30.38R
LOGAN            N/A     63  43  48 CALM      30.35F
BLUEFIELD      SUNNY     58  34  40 SE5       30.39R
LEWISBURG      SUNNY     57  41  55 CALM      30.40S
$$

WVZ047-181700-
Northern Mountains of West Virginia

CITY           SKY/WX    TMP DP  RH WIND       PRES   REMARKS
ELKINS         SUNNY     54  39  57 CALM      30.37F
$$

WVZ052-181700-
Eastern Panhandle of West Virginia

CITY           SKY/WX    TMP DP  RH WIND       PRES   REMARKS
MARTINSBURG    SUNNY     61  43  51 S6        30.39S
PETERSBURG     SUNNY     60  43  53 CALM      30.39F
$$




USA.gov is the U.S. government's official web portal to all federal, state and local government web resources and services.